This demonstration page uses our WeatherBlox Daily Observations layout. Learn more.

Left ArrowRight Arrow

Hourly Observations for December 4, 2019

Temp ( °F °C ) Dew Point ( °F °C ) Humidity (%) Winds ( mph kmh ) Pressure ( in mb ) Visibility ( mi km ) Precip ( " mm )
12:56 am 00:56 Clear 36 2 28 -2 75 75 WNW 7 11 29.92 1013 10 16 0.00 0.00
1:56 am 01:56 Clear 34 1 28 -2 81 81 WNW 7 11 29.93 1014 10 16 0.00 0.00
2:56 am 02:56 Clear 34 1 28 -2 81 81 WNW 7 11 29.93 1014 10 16 0.00 0.00
3:56 am 03:56 Clear 34 1 28 -2 81 81 W 7 11 29.93 1013 10 16 0.00 0.00
4:56 am 04:56 undefined N/A N/A N/A WSW 5 7 N/A N/A 0.00 0.00
5:56 am 05:56 Clear 34 1 28 -2 81 81 WNW 7 11 29.94 1014 10 16 0.00 0.00
6:56 am 06:56 Clear 32 0 27 -3 80 80 WNW 6 9 29.96 1015 10 16 0.00 0.00
7:56 am 07:56 Sunny 32 0 27 -3 80 80 NW 3 6 29.96 1015 10 16 0.00 0.00
8:56 am 08:56 Sunny 39 4 28 -2 65 65 WNW 6 9 29.98 1015 10 16 0.00 0.00
9:56 am 09:56 Sunny 43 6 30 -1 61 61 W 7 11 29.99 1016 10 16 0.00 0.00
10:56 am 10:56 Sunny 48 9 30 -1 50 50 WNW 9 15 29.99 1016 10 16 0.00 0.00
11:56 am 11:56 Sunny 50 10 30 -1 47 47 W 8 13 29.98 1015 10 16 0.00 0.00
12:56 pm 12:56 Sunny 54 12 32 0 44 44 W 6 9 29.98 1015 10 16 0.00 0.00
1:56 pm 13:56 Sunny 52 11 32 0 47 47 NW 9 15 29.96 1014 10 16 0.00 0.00
2:56 pm 14:56 Sunny 52 11 34 1 50 50 NW 7 11 29.96 1015 10 16 0.00 0.00
3:56 pm 15:56 Mostly Sunny 52 11 50 10 94 94 W 7 11 29.97 1015 10 16 0.00 0.00
4:56 pm 16:56 Mostly Clear 48 9 34 1 58 58 Calm 29.95 1014 10 16 0.00 0.00
5:56 pm 17:56 Clear 45 7 34 1 66 66 WNW 3 6 29.96 1015 10 16 0.00 0.00
6:56 pm 18:56 Clear 41 5 32 0 70 70 WNW 3 6 29.98 1015 10 16 0.00 0.00
7:56 pm 19:56 Clear 41 5 32 0 70 70 Calm 29.98 1015 10 16 0.00 0.00
8:56 pm 20:56 Clear 37 3 32 0 81 81 Calm 29.97 1015 10 16 0.00 0.00
9:56 pm 21:56 Clear 37 3 32 0 81 81 Calm 29.97 1015 10 16 0.00 0.00
10:56 pm 22:56 Clear 36 2 32 0 87 87 Calm 29.96 1015 10 16 0.00 0.00
11:56 pm 23:56 Clear 34 1 30 -1 87 87 Calm 29.96 1015 10 16 0.00 0.00

Powered by AerisWeather